SXS22AB LTAI-EDDL

Flight info

Callsign SXS22AB
Flight time N/A
Altitude 34000
Route EKNUD1K/18L EKNUD UQ26 DIGBO UL615 VADEN DCT UTEKA DCT BABIT DCT SASAL DCT LAMSI DCT TESDU DCT AMETU T852 TINSA T854 DOMUX DOMUX1A
Aircraft B738/M-SDE2E3FGHIRWXY/LB1

Departure

Time 2026-05-05 17:18
Airport Antalya International Airport (LTAI)

Arrival

Time N/A
Airport Düsseldorf Airport (EDDL)
Time Latitude Longitude Altitude Speed Heading
2026-05-05 16:48 36.89822 30.80247 205 ft 0 kts 291°
2026-05-05 17:05 36.89813 30.80270 194 ft 4 kts 307°
2026-05-05 17:05 36.89794 30.80293 196 ft 4 kts 329°
2026-05-05 17:06 36.89769 30.80307 197 ft 4 kts 345°
2026-05-05 17:06 36.89743 30.80313 204 ft 4 kts 355°
2026-05-05 17:06 36.89716 30.80313 194 ft 4 kts
2026-05-05 17:06 36.89689 30.80310 205 ft 4 kts
2026-05-05 17:07 36.89662 30.80305 197 ft 4 kts 11°
2026-05-05 17:07 36.89636 30.80298 195 ft 4 kts 11°
2026-05-05 17:07 36.89609 30.80294 191 ft 4 kts 356°
2026-05-05 17:07 36.89592 30.80300 206 ft 3 kts 291°
2026-05-05 17:08 36.89590 30.80288 206 ft 4 kts 250°
2026-05-05 17:08 36.89586 30.80265 202 ft 4 kts 289°
2026-05-05 17:08 36.89595 30.80250 198 ft 4 kts 298°
2026-05-05 17:08 36.89588 30.80246 200 ft 4 kts 239°
2026-05-05 17:09 36.89598 30.80230 196 ft 1 kts 315°
2026-05-05 17:10 36.89600 30.80230 195 ft 1 kts 333°
2026-05-05 17:10 36.89604 30.80237 195 ft 1 kts 58°
2026-05-05 17:11 36.89601 30.80259 195 ft 1 kts 98°
2026-05-05 17:11 36.89600 30.80269 194 ft 1 kts 98°
2026-05-05 17:11 36.89599 30.80278 202 ft 1 kts 98°
2026-05-05 17:11 36.89597 30.80289 205 ft 3 kts 102°
2026-05-05 17:12 36.89588 30.80344 197 ft 9 kts 101°
2026-05-05 17:12 36.89579 30.80433 202 ft 11 kts 96°
2026-05-05 17:12 36.89570 30.80537 191 ft 13 kts 96°
2026-05-05 17:12 36.89559 30.80659 191 ft 15 kts 94°
2026-05-05 17:13 36.89579 30.80694 194 ft 3 kts
2026-05-05 17:13 36.89611 30.80699 195 ft 8 kts
2026-05-05 17:13 36.89677 30.80708 193 ft 10 kts
2026-05-05 17:13 36.89744 30.80716 194 ft 10 kts
2026-05-05 17:14 36.89812 30.80726 194 ft 10 kts
2026-05-05 17:14 36.89879 30.80735 198 ft 10 kts
2026-05-05 17:14 36.89944 30.80744 195 ft 9 kts
2026-05-05 17:14 36.90008 30.80752 193 ft 9 kts
2026-05-05 17:15 36.90079 30.80761 191 ft 12 kts
2026-05-05 17:15 36.90165 30.80772 191 ft 14 kts
2026-05-05 17:15 36.90274 30.80789 195 ft 17 kts
2026-05-05 17:15 36.90402 30.80807 196 ft 20 kts
2026-05-05 17:16 36.90546 30.80826 198 ft 22 kts
2026-05-05 17:16 36.90703 30.80847 194 ft 24 kts
2026-05-05 17:16 36.90842 30.80866 197 ft 17 kts
2026-05-05 17:16 36.90955 30.80881 193 ft 16 kts
2026-05-05 17:17 36.91063 30.80896 200 ft 15 kts
2026-05-05 17:17 36.91140 30.80969 195 ft 15 kts 88°
2026-05-05 17:17 36.91126 30.81095 194 ft 14 kts 102°
2026-05-05 17:17 36.91045 30.81131 199 ft 14 kts 187°
2026-05-05 17:18 36.90695 30.81080 195 ft 93 kts 186°
2026-05-05 17:18 36.89792 30.80949 199 ft 165 kts 189°
2026-05-05 17:18 36.88519 30.80802 689 ft 194 kts 182°
2026-05-05 17:18 36.87094 30.80827 1451 ft 219 kts 178°
2026-05-05 17:19 36.85596 30.81084 2315 ft 228 kts 172°
2026-05-05 17:19 36.84013 30.81419 3021 ft 231 kts 172°
2026-05-05 17:19 36.82398 30.81752 3588 ft 239 kts 172°
2026-05-05 17:19 36.80727 30.82083 4136 ft 247 kts 172°
2026-05-05 17:20 36.79024 30.82618 4697 ft 262 kts 156°
2026-05-05 17:20 36.77309 30.83663 5018 ft 286 kts 152°
2026-05-05 17:20 36.75533 30.84863 5697 ft 294 kts 144°
2026-05-05 17:20 36.74191 30.86740 6506 ft 289 kts 114°
2026-05-05 17:21 36.73590 30.89107 7263 ft 287 kts 94°
2026-05-05 17:21 36.73377 30.91593 8036 ft 289 kts 91°
2026-05-05 17:21 36.73205 30.94098 8802 ft 294 kts 91°
2026-05-05 17:22 36.72839 30.99190 10242 ft 299 kts 94°
2026-05-05 17:22 36.72631 31.01833 10609 ft 317 kts 94°
2026-05-05 17:22 36.72404 31.04673 10815 ft 339 kts 93°
2026-05-05 17:22 36.72599 31.07665 10981 ft 357 kts 71°
2026-05-05 17:23 36.73804 31.10409 11253 ft 368 kts 46°
2026-05-05 17:23 36.75867 31.12286 11772 ft 371 kts 20°
2026-05-05 17:23 36.78373 31.12997 12423 ft 371 kts
2026-05-05 17:23 36.80966 31.13301 13045 ft 377 kts
2026-05-05 17:24 36.83598 31.13512 13639 ft 381 kts 355°
2026-05-05 17:24 36.86187 31.12816 14213 ft 382 kts 337°
2026-05-05 17:24 36.88471 31.11150 14858 ft 382 kts 322°
2026-05-05 17:24 36.90571 31.09113 15482 ft 384 kts 320°